[[{"header":{"parameterUnit":"m.s-1","parameterCategory":1,"la1":30.2991,"la2":30.254,"lo1":-89.0895,"lo2":-89.0444,"dy":0.0017,"dx":0.0017,"nx":28,"ny":28,"refTime":"2024-07-07T03:00:00:Z","depth":0,"parameterNumber":2,"parameterNumberName":"U-component_of_WINDS"},"data":[0,0,0,0,0,0,0,0,0,0,0,0,0,0,0,0,0,0,0,0,0,0,0,0,0,0,0,0,0,0,0,0,0,0,0,0,0,0,0,0,0,0,0,0,0,0,0,0,0,0,0,0,0,0,0,0,0,0,-0.6639,-0.6639,0,-0.6623,-0.6623,-0.6622,-0.6607,-0.6606,-0.6606,-0.6606,-0.6589,-0.6589,-0.6588,0,0,0,0,0,0,0,0,0,0,0,0,0,-0.6657,-0.6657,-0.6639,-0.6639,-0.6639,-0.6623,-0.6623,-0.6622,-0.6607,-0.6606,-0.6606,-0.6606,-0.6589,-0.6589,-0.6588,0,0,0,0,0,0,0,0,0,0,0,0,0,-0.6646,-0.6657,-0.6639,-0.6629,-0.6628,-0.6623,-0.6623,-0.6622,-0.6607,-0.6606,-0.6606,-0.6606,-0.6589,-0.6589,-0.6588,-0.6592,0,0,-0.6587,-0.6587,0,0,0,0,0,0,0,0,-0.6646,-0.6645,-0.6631,-0.663,-0.6628,-0.6616,-0.6623,-0.6612,-0.6607,-0.6615,-0.6606,-0.6606,-0.6598,-0.6597,-0.6595,-0.6591,-0.659,-0.6587,-0.6587,-0.6587,-0.6586,0,0,0,0,0,0,0,-0.6647,-0.6646,-0.6633,-0.6631,-0.6629,-0.6625,-0.6623,-0.662,-0.6608,-0.6614,-0.6613,-0.6611,-0.6598,-0.6595,-0.6594,-0.659,-0.6587,-0.6587,-0.6586,-0.6586,-0.6589,-0.6589,0,0,0,0,0,0,-0.665,-0.6647,-0.6633,-0.6632,-0.6637,-0.6625,-0.6623,-0.6621,-0.6608,-0.6606,-0.6611,-0.661,-0.6596,-0.6595,-0.6593,-0.6597,-0.6587,-0.6586,-0.6586,-0.6589,-0.6589,-0.6589,0,0,0,0,0,0,-0.665,-0.6649,-0.6634,-0.6639,-0.6637,-0.6625,-0.6623,-0.662,-0.6618,-0.6606,-0.6604,-0.6611,-0.6596,-0.6594,-0.6592,-0.6596,-0.6586,-0.6586,-0.6588,-0.6589,-0.6589,-0.6605,0,0,0,0,0,0,-0.6651,-0.6649,-0.665,-0.6639,-0.6637,-0.6633,-0.6623,-0.662,-0.6617,-0.6616,-0.6605,-0.6603,-0.6595,-0.6593,-0.6592,-0.6596,-0.6585,-0.6588,-0.6589,-0.6589,-0.6604,-0.6606,-0.6607,0,0,0,0,0,-0.6651,-0.6655,-0.665,-0.6649,-0.6638,-0.6633,-0.6632,-0.6623,-0.6618,-0.6619,-0.6611,-0.6604,-0.6596,-0.6593,-0.6592,-0.6595,-0.6588,-0.6588,-0.6589,-0.6603,-0.6605,-0.6607,0,0,0,0,0,0,-0.6666,-0.6653,-0.6648,-0.6648,-0.6642,-0.6631,-0.6632,-0.6625,-0.662,-0.6619,-0.6608,-0.6605,-0.6605,-0.66,-0.6597,-0.6598,-0.6591,-0.6591,-0.6602,-0.6604,-0.6606,-0.6607,-0.6585,0,0,0,0,0,-0.667,-0.6667,-0.6656,-0.6657,-0.6654,-0.6644,-0.6641,-0.6635,-0.6628,-0.6625,-0.6618,-0.6612,-0.6608,-0.6605,-0.6601,-0.6603,-0.66,-0.6604,-0.6606,-0.6608,-0.6608,-0.6609,-0.6611,-0.6592,-0.6592,-0.6592,0,0,-0.6677,-0.6669,-0.6668,-0.666,-0.6655,-0.6652,-0.6642,-0.664,-0.6638,-0.6625,-0.6623,-0.6618,-0.661,-0.661,-0.661,-0.6605,-0.6613,-0.6609,-0.661,-0.661,-0.661,-0.6612,-0.6613,-0.6592,-0.6592,-0.6592,0,0,-0.6688,-0.6682,-0.6683,-0.6678,-0.6669,-0.6662,-0.6663,-0.6652,-0.6648,-0.6646,-0.6637,-0.6634,-0.6628,-0.6623,-0.6619,-0.6629,-0.6622,-0.6628,-0.6637,-0.6638,-0.664,-0.6641,-0.6645,-0.6646,-0.6629,-0.6629,-0.6629,0,-0.6698,-0.6694,-0.6684,-0.6683,-0.6679,-0.6668,-0.6668,-0.6664,-0.6655,-0.6653,-0.6648,-0.664,-0.6634,-0.6633,-0.6635,-0.6633,-0.6633,-0.6629,-0.664,-0.6641,-0.6642,-0.6646,-0.6647,-0.663,-0.663,-0.663,-0.6629,0,-0.6707,-0.6704,-0.6706,-0.6697,-0.6694,-0.6694,-0.6684,-0.6682,-0.6675,-0.6669,-0.6667,-0.6659,-0.6654,-0.6653,-0.6646,-0.6651,-0.6649,-0.6642,-0.6635,-0.6645,-0.6648,-0.665,-0.6631,-0.6631,-0.663,-0.663,0,0,-0.6727,-0.6714,-0.6714,-0.6711,-0.6701,-0.6699,-0.6698,-0.6692,-0.6691,-0.6685,-0.6684,-0.6679,-0.6674,-0.667,-0.6663,-0.6663,-0.6672,-0.6657,-0.6657,-0.666,-0.6677,-0.6682,-0.6684,-0.6667,-0.6667,-0.6668,-0.6678,0,-0.6738,-0.6736,-0.6726,-0.6727,-0.6725,-0.6714,-0.6713,-0.6707,-0.6701,-0.6698,-0.6691,-0.6688,-0.668,-0.6678,-0.6678,-0.6671,-0.6675,-0.667,-0.6667,-0.6667,-0.6669,-0.6686,-0.6691,-0.6701,-0.6679,-0.6679,-0.6679,0,-0.6749,-0.6744,-0.6745,-0.6736,-0.6734,-0.6734,-0.6728,-0.6726,-0.6719,-0.6714,-0.671,-0.6702,-0.6701,-0.6693,-0.6691,-0.6688,-0.6686,-0.6682,-0.6682,-0.6682,-0.6674,-0.6686,-0.6704,-0.6706,-0.6681,-0.6681,-0.6681,0,-0.6765,-0.6759,-0.6758,-0.6755,-0.6744,-0.6744,-0.6739,-0.6732,-0.6729,-0.6724,-0.6723,-0.6717,-0.6715,-0.6711,-0.6702,-0.6697,-0.6701,-0.6693,-0.6697,-0.6698,-0.6699,-0.6699,-0.6717,-0.6697,-0.6697,-0.6697,-0.6697,0,-0.6778,-0.6779,-0.6765,-0.6765,-0.6766,-0.6755,-0.6756,-0.675,-0.6744,-0.6742,-0.6732,-0.6731,-0.6719,-0.6716,-0.6709,-0.6709,-0.6708,-0.6704,-0.6702,-0.6705,-0.6706,-0.6704,-0.6703,-0.6697,-0.6697,-0.6697,-0.6697,0,-0.6796,-0.6787,-0.6785,-0.6775,-0.6772,-0.6773,-0.6764,-0.6764,-0.6757,-0.6755,-0.6754,-0.6744,-0.674,-0.6731,-0.6725,-0.672,-0.6722,-0.6718,-0.6724,-0.6723,-0.6728,-0.6728,-0.6746,-0.6748,-0.6726,-0.6727,-0.6727,0,-0.6805,-0.6805,-0.6795,-0.6793,-0.6789,-0.6786,-0.6783,-0.6773,-0.6771,-0.6763,-0.6763,-0.6759,-0.6755,-0.675,-0.6742,-0.6737,-0.6733,-0.674,-0.6732,-0.6736,-0.6734,-0.6734,-0.6734,-0.6742,-0.6742,-0.6742,-0.6742,0,-0.6822,-0.6817,-0.6814,-0.6809,-0.6806,-0.6801,-0.6796,-0.6795,-0.6784,-0.6781,-0.6778,-0.6775,-0.6769,-0.6765,-0.6759,-0.6754,-0.6746,-0.6745,-0.6746,-0.6749,-0.6753,-0.6751,-0.6729,-0.6744,-0.6744,-0.6744,-0.6744,-0.6744,-0.6836,-0.6836,-0.6828,-0.6825,-0.682,-0.6815,-0.6815,-0.6808,-0.6804,-0.6799,-0.6793,-0.679,-0.6783,-0.6774,-0.677,-0.6767,-0.6763,-0.6765,-0.6765,-0.6766,-0.6767,-0.6753,-0.6766,-0.6766,-0.6766,-0.6766,-0.6766,0,-0.6853,-0.6847,-0.6844,-0.6838,-0.6835,-0.6828,-0.6822,-0.682,-0.6818,-0.6812,-0.6808,-0.6804,-0.68,-0.6791,-0.6787,-0.6786,-0.6783,-0.6786,-0.6786,-0.6785,-0.6771,-0.6771,-0.6789,-0.6789,-0.6789,-0.6789,-0.6789,-0.6789,-0.6861,-0.6861,-0.6856,-0.6853,-0.6847,-0.6845,-0.6842,-0.6838,-0.6833,-0.6829,-0.6826,-0.682,-0.6813,-0.6808,-0.6804,-0.6801,-0.68,-0.6804,-0.6801,-0.6788,-0.6786,-0.6784,-0.6784,-0.6804,-0.6804,-0.6815,-0.6815,-0.6815]},{"header":{"parameterUnit":"m.s-1","parameterCategory":1,"la1":30.2991,"la2":30.254,"lo1":-89.0895,"lo2":-89.0444,"dy":0.0017,"dx":0.0017,"nx":28,"ny":28,"refTime":"2024-07-07T03:00:00:Z","depth":0,"parameterNumber":3,"parameterNumberName":"V-component_of_WINDS"},"data":[0,0,0,0,0,0,0,0,0,0,0,0,0,0,0,0,0,0,0,0,0,0,0,0,0,0,0,0,0,0,0,0,0,0,0,0,0,0,0,0,0,0,0,0,0,0,0,0,0,0,0,0,0,0,0,0,0,0,4.3943,4.3942,0,4.3903,4.3902,4.3902,4.3804,4.3802,4.38,4.3798,4.3759,4.376,4.3761,0,0,0,0,0,0,0,0,0,0,0,0,0,4.3936,4.3937,4.3943,4.3942,4.3942,4.3903,4.3902,4.3902,4.3804,4.3802,4.3799,4.3797,4.3759,4.376,4.3761,0,0,0,0,0,0,0,0,0,0,0,0,0,4.3922,4.3937,4.3943,4.3888,4.3883,4.3903,4.3902,4.3902,4.3805,4.3802,4.3799,4.3796,4.3758,4.376,4.3761,4.3831,0,0,4.3765,4.3766,0,0,0,0,0,0,0,0,4.3923,4.3923,4.3897,4.3892,4.3886,4.3855,4.3886,4.3878,4.3806,4.3835,4.3798,4.3794,4.3794,4.3792,4.3791,4.383,4.3828,4.3765,4.3766,4.3767,4.3767,0,0,0,0,0,0,0,4.3924,4.3924,4.3927,4.3897,4.389,4.3866,4.3861,4.3884,4.3832,4.3832,4.3825,4.3821,4.379,4.379,4.379,4.3827,4.3765,4.3766,4.3767,4.3768,4.392,4.3923,0,0,0,0,0,0,4.3933,4.3925,4.3928,4.3926,4.3897,4.3869,4.3863,4.3868,4.3832,4.3823,4.3824,4.3817,4.3789,4.3788,4.3788,4.3867,4.3767,4.3768,4.3769,4.3917,4.3921,4.3924,0,0,0,0,0,0,4.3933,4.3934,4.393,4.3924,4.3921,4.3873,4.3879,4.3869,4.3869,4.3825,4.3816,4.3833,4.3787,4.3786,4.3821,4.3864,4.3768,4.377,4.3913,4.3918,4.3923,4.4026,0,0,0,0,0,0,4.3933,4.3935,4.3961,4.3925,4.3922,4.3963,4.3882,4.3871,4.3871,4.3862,4.3832,4.3824,4.3784,4.3819,4.3822,4.3864,4.3771,4.3909,4.3915,4.3921,4.4018,4.4034,4.4047,0,0,0,0,0,4.3933,4.3992,4.3962,4.3963,4.3953,4.3966,4.3964,4.3917,4.3875,4.3901,4.3873,4.3825,4.3859,4.3824,4.3826,4.3869,4.3906,4.3914,4.3921,4.4012,4.4031,4.4046,0,0,0,0,0,0,4.4035,4.3986,4.3953,4.4001,4.3989,4.3949,4.398,4.3939,4.3938,4.3929,4.3871,4.3865,4.3908,4.3892,4.3854,4.3935,4.3875,4.3883,4.3943,4.3961,4.3975,4.3977,4.3772,0,0,0,0,0,4.4063,4.4077,4.4034,4.4081,4.4076,4.403,4.4033,4.3998,4.3983,4.3977,4.3951,4.3939,4.3946,4.3953,4.3958,4.4016,4.4008,4.4047,4.4061,4.4073,4.408,4.4109,4.4125,4.3948,4.3948,4.3948,0,0,4.4121,4.4096,4.4108,4.41,4.4086,4.4102,4.4026,4.4046,4.4057,4.398,4.4011,4.3992,4.3974,4.4021,4.404,4.4009,4.4127,4.4082,4.4092,4.4093,4.4118,4.4135,4.415,4.3953,4.3952,4.3952,0,0,4.4234,4.4217,4.4253,4.4241,4.422,4.4189,4.4198,4.4165,4.4149,4.4179,4.4121,4.4134,4.4149,4.4138,4.4135,4.4245,4.42,4.4248,4.4322,4.435,4.4364,4.4376,4.4415,4.4429,4.4256,4.4256,4.4256,0,4.4309,4.433,4.4278,4.4302,4.43,4.423,4.4267,4.4257,4.424,4.424,4.4206,4.4222,4.4205,4.4248,4.4275,4.4275,4.4283,4.4251,4.4366,4.4378,4.4389,4.4424,4.4439,4.4262,4.4261,4.4261,4.426,0,4.4422,4.4438,4.447,4.4454,4.4455,4.4486,4.4439,4.4447,4.4412,4.4385,4.4416,4.4394,4.4392,4.44,4.4367,4.4438,4.4419,4.4377,4.4315,4.4412,4.4445,4.4458,4.427,4.4268,4.4266,4.4265,0,0,4.4598,4.4552,4.4564,4.4556,4.4528,4.4539,4.4567,4.4564,4.4572,4.4563,4.4584,4.4598,4.4558,4.4554,4.4519,4.4545,4.4632,4.4498,4.4497,4.4523,4.4708,4.474,4.4757,4.4602,4.4605,4.4607,4.4709,0,4.4703,4.4746,4.47,4.4753,4.4766,4.4701,4.4724,4.471,4.4686,4.4694,4.4667,4.4677,4.4624,4.4621,4.4644,4.4616,4.4668,4.4608,4.4621,4.4623,4.4627,4.4774,4.4807,4.4905,4.4722,4.4724,4.4726,0,4.4832,4.4827,4.4881,4.4849,4.4853,4.4875,4.4869,4.4878,4.486,4.4841,4.4837,4.4794,4.4818,4.4759,4.4793,4.4753,4.4756,4.4744,4.4746,4.4745,4.4679,4.4775,4.4935,4.495,4.4745,4.4744,4.4742,0,4.4953,4.496,4.4993,4.4988,4.4952,4.4969,4.4954,4.4934,4.4935,4.4931,4.4931,4.493,4.4929,4.4929,4.4887,4.4848,4.4926,4.4863,4.491,4.4911,4.4929,4.4928,4.509,4.4933,4.4932,4.4932,4.4932,0,4.5075,4.511,4.5047,4.5067,4.5105,4.5052,4.5091,4.507,4.5052,4.5068,4.5012,4.5027,4.4971,4.4981,4.4949,4.4981,4.4981,4.4966,4.4957,4.497,4.4972,4.4971,4.4963,4.4936,4.4935,4.4934,4.4934,0,4.5216,4.5175,4.5206,4.5169,4.5161,4.519,4.5158,4.5176,4.5148,4.5168,4.5169,4.5125,4.5134,4.5092,4.5094,4.5072,4.5121,4.51,4.5126,4.512,4.5168,4.5164,4.5335,4.5354,4.5185,4.5187,4.5188,0,4.5296,4.5321,4.5287,4.5292,4.5281,4.5291,4.5292,4.5242,4.5245,4.5227,4.5247,4.5251,4.5251,4.5268,4.5237,4.5238,4.5216,4.5276,4.5216,4.5229,4.5216,4.5215,4.5217,4.5288,4.5291,4.5292,4.5294,0,4.5442,4.542,4.5423,4.542,4.5422,4.5417,4.5408,4.5416,4.5362,4.5369,4.5376,4.5377,4.5378,4.5382,4.5377,4.5363,4.532,4.5313,4.5324,4.5337,4.5351,4.5343,4.5159,4.5309,4.5307,4.5306,4.5306,4.5305,4.5554,4.5573,4.5552,4.5557,4.5545,4.5538,4.5552,4.5525,4.5531,4.5527,4.5497,4.5511,4.5493,4.548,4.5471,4.5481,4.5452,4.5468,4.5472,4.5476,4.5485,4.535,4.548,4.5479,4.5479,4.5478,4.5478,0,4.5696,4.5679,4.5684,4.5673,4.5678,4.5636,4.5624,4.563,4.5643,4.5629,4.563,4.5639,4.5643,4.5612,4.5612,4.5626,4.5607,4.5628,4.5626,4.5623,4.551,4.55,4.5644,4.5644,4.5644,4.5644,4.5644,4.5644,4.5771,4.58,4.5776,4.58,4.5783,4.5794,4.5791,4.5784,4.5773,4.5785,4.5788,4.5768,4.5747,4.5745,4.5747,4.5738,4.574,4.5769,4.5753,4.5648,4.5631,4.5616,4.5606,4.577,4.577,4.5865,4.5866,4.5866]}]]